DRAUGEN current weather conditions

sailwx.info

Wind from 070 at 24 knots

Air temperature 7.0° C
Dewpoint 5.0° C

Last reported at 2015-Apr-25 18:20 UTC.
Time now 2015-Apr-25 19:44 UTC

Location: N 64°22' E 007°47'.
View on Google Maps.

See reports from other nearby stations

  
Tides and Currents Weather Stations Pressure Air Temp Water Temp Dewpoint Dewpoint Depression Visibility Wind Speed Wind Dir Waves Ship Positions
date/time (UTC)wind fromknots sea level pressurealtimeterstation pressurevisibilityair tempwater tempwave heightnotes
2015-Apr-25 18:20 070 24 7.0
2015-Apr-25 17:50 080 25 7.0
2015-Apr-25 17:20 080 20 7.0
2015-Apr-25 16:50 050 13 8.0
2015-Apr-25 16:20 040 14 8.0
2015-Apr-25 15:50 060 11 7.0
2015-Apr-25 15:10 070 12 5.4 7.0
2015-Apr-25 14:50 070 11 7.0
2015-Apr-25 14:20 070 9 7.0
2015-Apr-25 13:50 080 9 7.0
2015-Apr-25 13:20 080 11 7.0
2015-Apr-25 12:50 080 11 6.0
2015-Apr-25 12:10 070 11 5.4 6.0
2015-Apr-25 11:50 070 10 6.0
2015-Apr-25 11:20 080 14 6.0
2015-Apr-25 10:50 070 15 5.0
2015-Apr-25 10:20 080 17 5.0
2015-Apr-25 09:50 070 18 5.0
2015-Apr-25 09:10 070 19 5.4 5.0
2015-Apr-25 08:50 060 18 4.0
2015-Apr-25 08:20 060 17 5.0
2015-Apr-25 07:50 070 19 5.0
2015-Apr-25 07:20 060 18 5.0
2015-Apr-25 06:50 060 16 4.0
2015-Apr-25 06:10 070 15 5.4 4.0
2015-Apr-25 05:50 080 16 5.0
2015-Apr-25 05:20 070 17 4.0
2015-Apr-25 04:50 070 16 4.0
2015-Apr-25 04:20 070 13 4.0
2015-Apr-25 03:50 080 13 4.0
2015-Apr-25 03:20 070 10 4.0
2015-Apr-25 02:50 070 10 4.0
2015-Apr-25 02:20 090 11 4.0
2015-Apr-25 01:50 090 11 4.0
2015-Apr-25 01:20 090 10 4.0
2015-Apr-25 00:50 100 10 4.0
2015-Apr-25 00:20 110 6 3.0
2015-Apr-24 23:50 130 7 3.0
2015-Apr-24 23:20 140 7 3.0
2015-Apr-24 22:50 120 7 4.0
2015-Apr-24 22:20 140 6 4.0
2015-Apr-24 21:50 150 5 3.0
2015-Apr-24 21:20 170 5 4.0
2015-Apr-24 20:50 170 5 4.0
2015-Apr-24 20:20 170 5 4.0
2015-Apr-24 19:50 180 5 4.0
2015-Apr-24 19:20 200 5 4.0
2015-Apr-24 18:50 210 5 4.0
2015-Apr-24 18:20 220 7 4.0
2015-Apr-24 17:50 230 9 4.0
2015-Apr-24 17:20 4.0
2015-Apr-24 16:50 240 10 4.0
2015-Apr-24 16:20 240 14 3.0
2015-Apr-24 15:50 230 14 4.0
2015-Apr-24 15:10 230 16 5.4 4.0
2015-Apr-24 14:50 220 17 3.0
2015-Apr-24 14:20 220 16 3.0
2015-Apr-24 13:50 210 13 4.0
2015-Apr-24 13:20 210 15 4.0
2015-Apr-24 12:50 220 16 4.0
2015-Apr-24 12:20 230 15 4.0
2015-Apr-24 11:50 230 16 4.0
2015-Apr-24 11:20 250 19 4.0
2015-Apr-24 10:50 240 20 4.0
2015-Apr-24 10:20 240 20 4.0
2015-Apr-24 09:50 250 20 4.0
2015-Apr-24 09:20 260 20 4.0
2015-Apr-24 08:50 250 22 4.0
2015-Apr-24 08:20 250 23 4.0
2015-Apr-24 07:50 260 20 4.0
2015-Apr-24 07:20 270 22 4.0
2015-Apr-24 06:50 260 20 4.0
2015-Apr-24 06:10 260 20 5.4 4.0 Showers in the vicinity.
2015-Apr-24 05:50 270 16 4.0
2015-Apr-24 05:20 270 17 4.0
2015-Apr-24 04:50 290 16 4.0
2015-Apr-24 04:20 290 15 4.0
2015-Apr-24 03:50 290 17 4.0
2015-Apr-24 03:20 290 17 4.0
2015-Apr-24 02:50 290 19 3.0
2015-Apr-24 02:20 280 14 gusting 25 3.0
2015-Apr-24 01:50 260 26 3.0
2015-Apr-24 01:20 250 31 2.0
2015-Apr-24 00:50 260 32 3.0
2015-Apr-24 00:20 260 36 2.0
2015-Apr-23 23:50 260 41 2.0
2015-Apr-23 23:20 250 42 2.0
2015-Apr-23 22:50 260 40 2.0
2015-Apr-23 22:20 260 42 2.0
2015-Apr-23 21:50 250 38 2.0
2015-Apr-23 21:20 250 37 2.0
2015-Apr-23 20:50 250 38 2.0
2015-Apr-23 20:20 260 42 3.0
2015-Apr-23 19:50 260 40 3.0
2015-Apr-23 19:20 250 35 3.0